Powrót do katalogu

CZ-6A DEB

AktywnyPO
NORAD 60683·DEBRIS·🇨🇳 China

Wystrzelony Aug 6, 2024 z Taiyuan Satellite Launch Center

Loading…

Następne Przeloty (najbliższe 24 godziny)

TLE

ŚwieżeSource: Space-Track

Epoka: Sep 14, 2026, 10:59 UTC

1 60683U 24140CL  26257.45780089  .00000927  00000-0  37560-3 0  9999
2 60683  88.9971 263.9163 0024747 268.6865  91.1494 14.26799966109177

Śledź CZ-6A DEB w czasie rzeczywistym z AllMySat

Download on the App Store